Find Starlink 3956

NORAD ID: 52560 Int'l Des: 2022-051 Owner: SPXS Country: US Constellation: starlink operational
LEOCIRCULAR

現在のビュー

3D地球を読み込み中...

About Starlink 3956

Starlink 3956 (NORAD 52560) is a starlink constellation satellite (v1.5) launched May 13, 2022 by SPXS of US. It operates in LEO, CIRCULAR orbit with a mass of 297.00 kg.

次回通過

Passes for default location (London). Set your location on the main map for personalized predictions.

高度履歴

Loading altitude history...

軌道要素

1 52560U 22051AD 26264.60733269 .00000018 00000-0 11415-4 0 9999
2 52560 53.1616 312.8596 0001376 68.2107 291.9042 15.35410761241240
Epoch: Sep 21, 2026 • Age: 7 hours

現在のステータス

高度 471.6 km
遠地点 / 近地点 N/A
速度 7.63 km/s
衛星直下点 -34.79°S, 165.19°W
打ち上げ日 May 13, 2022
運用期間 4.3 years
タイプ internet

技術仕様

分類 Payload
質量 297.00 kg
乾燥質量 275.00 kg
長さ 0.20 m
スパン 9.00 m
形状 ? Box + pan
製造者 SPXS
バスタイプ Starlink
フェーズステータス In Orbit
所有者/国 SPXS/US

Most Searched